Find Shi Jian 11-05

NORAD ID: 39202 Int'l Des: 2013-035 Owner: CNSA Country: CN operational
LEOCIRCULARRETROGRADESSO

Live-Position

3D-Globus wird geladen...

Über Shi Jian 11-05

Beschreibung wird geladen...

Nächste Überflüge

Passes for default location (London). Set your location on the main map for personalized predictions.

Höhenverlauf

Loading altitude history...

Zweizeiliger Elementsatz

1 39202U 13035A 26106.98989539 .00000315 00000-0 68167-4 0 9994
2 39202 98.2852 291.3776 0011219 69.4549 290.7856 14.64824800680275
Epoch: 16. Apr. 2026 • Age: 13 hours

Aktueller Status

Höhe 694.1 km
Geschwindigkeit 7.51 km/s
Subsatellitenpunkt -37.70°S, 97.81°W
Startdatum 15. Juli 2013
Alter 12.7 years
Typ other

Technische Details

Klassifizierung Payload
Masse 300.00 kg
Trockenmasse 300.00 kg
Gesamtmasse 300.00 kg
Länge 1.00 m
Durchmesser 1.00 m
Spannweite 3.00 m
Form Box + 2 Pan
Hersteller DFHZ
Bus-Typ CAST-2000
Phasenstatus In Orbit
Besitzer/Staat CNSA/CN

Most Searched